Location: ????? ??????
(37.8317°N, 23.8750°E)
Time: 12:27:14
(UTC+00:00)

Nadezhda 4 Rocket - Pass Details

Date: 20 January 2021
Orbit: 949 x 993 km, 83.0° (Epoch: 03 March)

Event Time Altitude Azimuth Distance (km) Brightness Sun altitude
Rises 17:06:49 0° 193° (SSW) 3,679 7.3 -18.1°
Reaches altitude 10° 17:09:22 10° 195° (SSW) 2,730 6.7 -18.5°
Maximum altitude 17:15:35 67° 278° (W) 1,052 4.3 -19.8°
Drops below altitude 10° 17:21:47 10° 1° (N) 2,717 6.2 -21.0°
Sets 17:24:19 0° 4° (N) 3,661 6.9 -21.5°
